Regional Weather Roundup
Issued by NWS

Home | Current Version | Previous Version | Graphics & Text | Print | Product List | Glossary On
Versions: 1 2 3 4 5 6 7 8 9 10 11 12 13 14 15 16 17 18 19 20 21 22 23 24 25 26 27 28 29 30 31 32 33 34 35 36 37 38 39 40 41 42 43 44 45 46 47 48 49 50
000
ASUS43 KLSX 201507
RWRMO

WEATHER SUMMARY FOR MISSOURI
NATIONAL WEATHER SERVICE SPRINGFIELD MO
900 AM CST MON NOV 20 2017

NOTE: "FAIR" INDICATES FEW OR NO CLOUDS BELOW 12,000 FEET WITH NO
       SIGNIFICANT WEATHER AND/OR OBSTRUCTIONS TO VISIBILITY.
       CURRENT SKY AND/OR WEATHER CONDITIONS ARE NOT AVAILABLE FOR
       CHILLICOTHE AND FARMINGTON.

MOZ001>031-035>038-043-044-053-054-201600-
...NORTHERN AND WESTERN MISSOURI...

CITY           SKY/WX    TMP DP  RH WIND       PRES   REMARKS
KANSAS CTY INT PTSUNNY   48  28  46 S20G28    29.90F
KANSAS C DTWN  SUNNY     50  28  42 S17G23    29.93F
LEE`S SUMMIT   SUNNY     47  30  51 SW18G26   29.95F
ST JOSEPH      SUNNY     48  28  46 S13       29.87F
CHILLICOTHE      N/A     45  31  58 S13       29.92F
KIRKSVILLE     SUNNY     47  30  51 SW18G28   29.92F

$$
MOZ066>068-077>081-088>096-101>105-201600-
...SOUTHWEST MISSOURI...

CITY           SKY/WX    TMP DP  RH WIND       PRES   REMARKS
SPRINGFIELD    SUNNY     43  30  60 S14       30.10S
JOPLIN         SUNNY     50  29  44 S21G31    30.07F
BRANSON        MOSUNNY   46  27  46 SE6       30.15S

$$
MOZ032>034-039>042-045>050-055>058-069>072-201600-
...CENTRAL MISSOURI...

CITY           SKY/WX    TMP DP  RH WIND       PRES   REMARKS
COLUMBIA       SUNNY     44  30  57 S15       30.03F
JEFFERSON CITY SUNNY     44  28  53 VRB7      30.06F
ROLLA          CLOUDY    44  26  49 S16       30.09F
SEDALIA        SUNNY     48  31  51 SW22G31   30.01F
WHITEMAN AFB   MOSUNNY   46  30  54 SW18      29.95F
WARRENSBURG    SUNNY     45  30  57 S15G22    29.99F
OSAGE BEACH    SUNNY     41  28  60 SE7       30.09F

$$
MOZ051-052-059>065-201600-
...EAST CENTRAL MISSOURI...

CITY           SKY/WX    TMP DP  RH WIND       PRES   REMARKS
ST LOUIS INTL  PTSUNNY   47  24  40 SW16G25   30.09S
SPIRIT OF STL  CLOUDY    46  24  42 S10       30.09F
ST CHARLES     SUNNY     43  28  55 SW6       30.09S

$$
MOZ072>076-082>087-097>100-106>115-201600-
...SOUTH CENTRAL AND SOUTHEAST MISSOURI...

CITY           SKY/WX    TMP DP  RH WIND       PRES   REMARKS
CAPE GIRARDEAU CLOUDY    38  28  67 S7        30.23S
FARMINGTON     CLOUDY    40  22  48 S9        30.16F
POPLAR BLUFF   CLOUDY    38  31  76 S9        30.24S
WEST PLAINS    CLOUDY    45  22  40 S13       30.17S

$$



USA.gov is the U.S. government's official web portal to all federal, state and local government web resources and services.